Weather History for Platteville, WI

Change the Weather History Date:

Monday, November 12, 2012

  Actual Average (KDBQ) Record (KDBQ)
Temperature  
Mean Temperature 26 °F 39 °F  
Max Temperature 30 °F 47 °F 69 °F (1902)
Min Temperature 23 °F 31 °F 6 °F (1986)
Degree Days  
Heating Degree Days 38 26  
Month to date heating degree days 282  
Since 1 July heating degree days 931  
Cooling Degree Days 0 0  
Month to date cooling degree days 0  
Year to date cooling degree days 643  
Moisture  
Dew Point 19 °F    
Average Humidity 74    
Maximum Humidity 80    
Minimum Humidity 69    
Precipitation  
Precipitation 0.00 in 0.08 in 1.34 in (1922)
Month to date precipitation 0.97  
Year to date precipitation 33.07  
Snow  
Snow 0.00 in 0.10 in - ()
Month to date snowfall 0.4  
Since 1 July snowfall 0.4  
Since 1 September snowfall 0.4  
Snow Depth -    
Sea Level Pressure  
Sea Level Pressure 30.14 in    
Wind  
Wind Speed 15 mph (WSW)    
Max Wind Speed 22 mph    
Max Gust Speed 30 mph    
Visibility 10 miles    
Events      
T = Trace of Precipitation, MM = Missing Value Source: NWS Daily Summary

Daily Weather History Graph

Daily Weather History Graph

Search for Another Location

Airport:

Trip Planner

Search our weather history database for the weather conditions in past years. The results will help you decide how hot, cold, wet, or windy it might be!

Date:

Astronomy

Nov. 12, 2012 Rise Set
Actual Time 6:50 AM CST 4:41 PM CST
Civil Twilight 6:20 AM CST 5:11 PM CST
Nautical Twilight 5:45 AM CST 5:45 PM CST
Astronomical Twilight 5:12 AM CST 6:18 PM CST
Moon 5:14 AM CST (11/12) 3:47 PM CST (11/12)
Length of Visible Light 10h 51m
Length of Day
9h 51m
Waning Crescent, 2% of the Moon is Illuminated
Nov 12
Waning Crescent
Nov 13
New
Nov 20
First Quarter
Nov 28
Full
Dec 6
Last Quarter

Hourly Weather History & Observations

Time (CST) Temp. Windchill Dew Point Humidity Pressure Visibility Wind Dir Wind Speed Gust Speed Precip Events Conditions
12:15 AM 30.2 °F 20.8 °F 23.0 °F 75% 29.99 in 10.0 mi West 11.5 mph - N/A   Overcast
12:55 AM 30.2 °F 21.3 °F 23.0 °F 75% 29.98 in 10.0 mi West 10.4 mph - N/A   Overcast
1:15 AM 30.2 °F 17.8 °F 23.0 °F 75% 29.98 in 10.0 mi West 19.6 mph 25.3 mph N/A   Overcast
1:55 AM 28.4 °F 15.4 °F 21.2 °F 74% 30.00 in 10.0 mi West 19.6 mph 26.5 mph N/A   Overcast
2:15 AM 28.4 °F 17.0 °F 21.2 °F 74% 30.02 in 10.0 mi West 15.0 mph 20.7 mph N/A   Overcast
2:35 AM 28.4 °F 17.5 °F 21.2 °F 74% 30.02 in 10.0 mi West 13.8 mph 20.7 mph N/A   Overcast
2:55 AM 28.4 °F 15.1 °F 19.4 °F 69% 30.02 in 10.0 mi West 20.7 mph 25.3 mph N/A   Overcast
3:15 AM 26.6 °F 13.1 °F 19.4 °F 74% 30.03 in 10.0 mi WSW 19.6 mph - N/A   Mostly Cloudy
3:55 AM 26.6 °F 16.2 °F 19.4 °F 74% 30.03 in 10.0 mi West 11.5 mph - N/A   Mostly Cloudy
4:15 AM 24.8 °F 12.9 °F 17.6 °F 74% 30.04 in 10.0 mi WSW 13.8 mph - N/A   Scattered Clouds
4:35 AM 24.8 °F 14.0 °F 17.6 °F 74% 30.04 in 10.0 mi West 11.5 mph - N/A   Mostly Cloudy
4:55 AM 24.8 °F 13.4 °F 19.4 °F 80% 30.04 in 10.0 mi WSW 12.7 mph - N/A   Overcast
5:15 AM 24.8 °F 14.0 °F 17.6 °F 74% 30.04 in 10.0 mi WSW 11.5 mph - N/A   Overcast
5:35 AM 24.8 °F 11.9 °F 17.6 °F 74% 30.04 in 10.0 mi West 16.1 mph - N/A   Overcast
5:55 AM 23.0 °F 10.1 °F 15.8 °F 74% 30.05 in 10.0 mi West 15.0 mph - N/A   Overcast
6:55 AM 23.0 °F 9.2 °F 17.6 °F 80% 30.07 in 10.0 mi WSW 17.3 mph - N/A   Overcast
7:15 AM 23.0 °F 9.2 °F 17.6 °F 80% 30.08 in 10.0 mi West 17.3 mph 23.0 mph N/A   Overcast
7:35 AM 23.0 °F 9.2 °F 17.6 °F 80% 30.08 in 10.0 mi West 17.3 mph 21.9 mph N/A   Overcast
7:55 AM 24.8 °F 11.5 °F 17.6 °F 74% 30.09 in 10.0 mi West 17.3 mph 23.0 mph N/A   Overcast
8:15 AM 24.8 °F 14.0 °F 17.6 °F 74% 30.09 in 10.0 mi WSW 11.5 mph - N/A   Overcast
8:35 AM 24.8 °F 12.9 °F 17.6 °F 74% 30.09 in 10.0 mi WSW 13.8 mph 21.9 mph N/A   Overcast
8:55 AM 26.6 °F 15.2 °F 17.6 °F 69% 30.09 in 10.0 mi WSW 13.8 mph 23.0 mph N/A   Overcast
9:15 AM 26.6 °F 13.4 °F 17.6 °F 69% 30.09 in 10.0 mi West 18.4 mph 23.0 mph N/A   Overcast
9:55 AM 26.6 °F 14.3 °F 19.4 °F 74% 30.10 in 10.0 mi WSW 16.1 mph 24.2 mph N/A   Overcast
10:15 AM 26.6 °F 13.1 °F 17.6 °F 69% 30.11 in 10.0 mi SW 19.6 mph 24.2 mph N/A   Overcast
10:35 AM 28.4 °F 15.1 °F 19.4 °F 69% 30.11 in 10.0 mi WSW 20.7 mph - N/A   Overcast
10:55 AM 28.4 °F 15.4 °F 19.4 °F 69% 30.11 in 10.0 mi WSW 19.6 mph 25.3 mph N/A   Overcast
11:15 AM 28.4 °F 15.4 °F 19.4 °F 69% 30.10 in 10.0 mi WSW 19.6 mph 25.3 mph N/A   Overcast
11:35 AM 28.4 °F 15.8 °F 19.4 °F 69% 30.09 in 10.0 mi WSW 18.4 mph 25.3 mph N/A   Overcast
11:55 AM 28.4 °F 14.7 °F 19.4 °F 69% 30.09 in 10.0 mi WSW 21.9 mph 27.6 mph N/A   Overcast
12:15 PM 28.4 °F 15.1 °F 19.4 °F 69% 30.09 in 10.0 mi WSW 20.7 mph 29.9 mph N/A   Overcast
12:35 PM 28.4 °F 15.8 °F 19.4 °F 69% 30.09 in 10.0 mi WSW 18.4 mph 25.3 mph N/A   Overcast
12:55 PM 28.4 °F 15.1 °F 19.4 °F 69% 30.10 in 10.0 mi WSW 20.7 mph 29.9 mph N/A   Overcast
1:15 PM 28.4 °F 14.7 °F 19.4 °F 69% 30.11 in 10.0 mi WSW 21.9 mph 29.9 mph N/A   Overcast
1:35 PM 28.4 °F 15.1 °F 19.4 °F 69% 30.11 in 10.0 mi WSW 20.7 mph 26.5 mph N/A   Overcast
1:55 PM 28.4 °F 15.4 °F 21.2 °F 74% 30.11 in 10.0 mi WSW 19.6 mph 24.2 mph N/A   Overcast
2:15 PM 28.4 °F 15.1 °F 21.2 °F 74% 30.11 in 10.0 mi WSW 20.7 mph 28.8 mph N/A   Overcast
2:35 PM 28.4 °F 14.7 °F 21.2 °F 74% 30.12 in 10.0 mi WSW 21.9 mph 26.5 mph N/A   Overcast
2:55 PM 28.4 °F 16.2 °F 19.4 °F 69% 30.13 in 10.0 mi WSW 17.3 mph 29.9 mph N/A   Overcast
3:15 PM 28.4 °F 16.6 °F 21.2 °F 74% 30.14 in 10.0 mi West 16.1 mph 25.3 mph N/A   Overcast
3:35 PM 28.4 °F 14.7 °F 21.2 °F 74% 30.15 in 10.0 mi West 21.9 mph 26.5 mph N/A   Overcast
3:55 PM 28.4 °F 15.8 °F 21.2 °F 74% 30.16 in 10.0 mi West 18.4 mph 23.0 mph N/A   Overcast
4:15 PM 28.4 °F 18.0 °F 21.2 °F 74% 30.17 in 10.0 mi West 12.7 mph 26.5 mph N/A   Overcast
4:35 PM 28.4 °F 17.0 °F 21.2 °F 74% 30.17 in 10.0 mi West 15.0 mph 19.6 mph N/A   Overcast
4:55 PM 28.4 °F 17.0 °F 21.2 °F 74% 30.18 in 10.0 mi West 15.0 mph - N/A   Overcast
5:15 PM 28.4 °F 18.5 °F 21.2 °F 74% 30.19 in 10.0 mi West 11.5 mph - N/A   Overcast
5:35 PM 28.4 °F 18.0 °F 23.0 °F 80% 30.20 in 7.0 mi West 12.7 mph - N/A   Overcast
5:55 PM 28.4 °F 18.5 °F 23.0 °F 80% 30.21 in 10.0 mi West 11.5 mph 19.6 mph N/A   Mostly Cloudy
6:15 PM 28.4 °F 18.5 °F 21.2 °F 74% 30.22 in 10.0 mi West 11.5 mph - N/A   Mostly Cloudy
6:35 PM 28.4 °F 17.0 °F 19.4 °F 69% 30.23 in 10.0 mi WNW 15.0 mph 19.6 mph N/A   Mostly Cloudy
6:55 PM 28.4 °F 17.0 °F 19.4 °F 69% 30.24 in 10.0 mi West 15.0 mph 21.9 mph N/A   Clear
7:35 PM 26.6 °F 17.5 °F 19.4 °F 74% 30.25 in 10.0 mi West 9.2 mph - N/A   Clear
7:55 PM 26.6 °F 17.5 °F 19.4 °F 74% 30.26 in 10.0 mi West 9.2 mph - N/A   Clear
8:15 PM 26.6 °F 16.8 °F 19.4 °F 74% 30.27 in 10.0 mi West 10.4 mph - N/A   Clear
8:35 PM 24.8 °F 15.3 °F 17.6 °F 74% 30.28 in 10.0 mi West 9.2 mph - N/A   Clear
8:55 PM 24.8 °F 16.1 °F 17.6 °F 74% 30.28 in 10.0 mi West 8.1 mph - N/A   Clear
9:15 PM 24.8 °F 16.1 °F 17.6 °F 74% 30.29 in 10.0 mi West 8.1 mph - N/A   Clear
9:35 PM 23.0 °F 14.7 °F 17.6 °F 80% 30.30 in 10.0 mi West 6.9 mph - N/A   Clear
9:55 PM 23.0 °F 14.7 °F 17.6 °F 80% 30.31 in 10.0 mi WSW 6.9 mph - N/A   Clear
10:15 PM 23.0 °F 14.7 °F 17.6 °F 80% 30.31 in 10.0 mi West 6.9 mph - N/A   Clear
10:35 PM 23.0 °F 13.9 °F 17.6 °F 80% 30.31 in 10.0 mi West 8.1 mph - N/A   Clear
10:55 PM 23.0 °F 14.7 °F 17.6 °F 80% 30.32 in 10.0 mi WSW 6.9 mph - N/A   Clear
11:15 PM 23.0 °F 13.9 °F 17.6 °F 80% 30.32 in 10.0 mi WSW 8.1 mph - N/A   Clear
11:35 PM 23.0 °F 13.9 °F 17.6 °F 80% 30.33 in 10.0 mi West 8.1 mph - N/A   Clear
11:55 PM 23.0 °F 14.7 °F 17.6 °F 80% 30.33 in 10.0 mi West 6.9 mph - N/A   Clear